Location: ??????????
(54.8537°N, 38.8755°E)
Time: 01:33:07
(UTC+00:00)

Transit 4A - Pass Details

Date: 13 September 2024
Orbit: 865 x 977 km, 66.8° (Epoch: 09 October)

Event Time Altitude Azimuth Distance (km) Brightness Sun altitude
Exits shadow 01:05:07 13° 198° (SSW) 2,292 9.5 -15.5°
Maximum altitude 01:10:10 57° 123° (ESE) 1,051 8.3 -14.9°
Drops below altitude 10° 01:16:04 10° 46° (NE) 2,611 11.5 -14.1°
Sets 01:18:39 0° 43° (NE) 3,575 12.4 -13.8°
